Change the Weather History Date:

Thursday, January 3, 2013

  Actual Average Record
Temperature  
Mean Temperature 44 °F -  
Max Temperature 47 °F - - ()
Min Temperature 40 °F - - ()
Degree Days  
Heating Degree Days 22    
Moisture  
Dew Point 41 °F    
Average Humidity 91    
Maximum Humidity 97    
Minimum Humidity 80    
Precipitation  
Precipitation 0.00 in - - ()
Sea Level Pressure  
Sea Level Pressure 29.84 in    
Wind  
Wind Speed 13 mph ()    
Max Wind Speed 32 mph    
Max Gust Speed -    
T = Trace of Precipitation, MM = Missing Value Source: Averaged Metar Reports

Daily Weather History Graph

Daily Weather History Graph

Search for Another Location

Airport or City:

Trip Planner

Search our weather history database for the weather conditions in past years. The results will help you decide how hot, cold, wet, or windy it might be!

Date:

Astronomy

Jan. 03, 2013 Rise Set
Actual Time 8:59 AM PST 4:43 PM PST
Civil Twilight 8:17 AM PST 5:24 PM PST
Nautical Twilight 7:33 AM PST 6:09 PM PST
Astronomical Twilight 6:51 AM PST 6:51 PM PST
Moon No Moon Rise 11:18 AM PST (1/3)
Length of Visible Light 9h 07m
Length of Day
7h 43m
Waning Gibbous, 64% of the Moon is Illuminated
Jan 3
Waning Gibbous
Jan 4
Last Quarter
Jan 11
New
Jan 18
First Quarter
Jan 26
Full

Hourly Weather History & Observations

Time (PST) Temp. Windchill Dew Point Humidity Pressure Visibility Wind Dir Wind Speed Gust Speed Precip Events Conditions
12:00 AM 40.6 °F 36.7 °F 39.2 °F 95% 29.99 in - WNW 5.8 mph - N/A   Unknown
1:00 AM 40.6 °F 37.5 °F 39.0 °F 94% 29.98 in - NW 4.6 mph - N/A   Unknown
2:00 AM 40.6 °F 37.5 °F 38.8 °F 93% 29.96 in - NW 4.6 mph - N/A   Unknown
3:00 AM 40.5 °F 37.3 °F 38.8 °F 94% 29.95 in - WNW 4.6 mph - N/A   Unknown
4:00 AM 41 °F - 39 °F 92% 29.93 in - West 4.6 mph - -  
4:00 AM 40.6 °F 37.5 °F 39.4 °F 95% 29.93 in - West 4.6 mph - N/A   Unknown
5:00 AM 40.5 °F 36.5 °F 39.6 °F 97% 29.91 in - WNW 5.8 mph - N/A   Unknown
6:00 AM 40.3 °F 37.1 °F 39.4 °F 97% 29.89 in - WNW 4.6 mph - N/A   Unknown
9:00 AM 44.4 °F 37.5 °F 43.3 °F 96% 29.83 in - SSE 15.0 mph - N/A   Unknown
10:00 AM 45 °F - 44 °F 93% 29.83 in - SSE 25.3 mph - -  
10:00 AM 45.3 °F 36.5 °F 43.7 °F 94% 29.83 in - SSE 25.3 mph - N/A   Unknown
11:00 AM 45.9 °F 37.6 °F 43.0 °F 90% 29.82 in - SSE 23.0 mph - N/A   Unknown
12:00 PM 47.1 °F - 42.3 °F 83% 29.81 in - SSE 26.5 mph - N/A   Unknown
2:00 PM 46.8 °F - 42.8 °F 86% 29.76 in - SSE 28.8 mph - N/A   Unknown
3:00 PM 46.8 °F - 42.6 °F 85% 29.76 in - SSE 28.8 mph - N/A   Unknown
4:00 PM 47 °F - 43 °F 80% 29.76 in - SSE 28.8 mph - -  
4:00 PM 46.8 °F - 42.8 °F 86% 29.76 in - SSE 28.8 mph - N/A   Unknown
5:00 PM 46.4 °F 37.4 °F 44.1 °F 92% 29.76 in - SSE 28.8 mph - N/A   Unknown
6:00 PM 46.8 °F - 44.2 °F 91% 29.76 in - SSE 31.1 mph - N/A   Unknown
7:00 PM 46.2 °F 36.6 °F 44.1 °F 92% 29.76 in - SSE 32.2 mph - N/A   Unknown
8:00 PM 45.9 °F 38.0 °F 44.2 °F 94% 29.77 in - South 20.7 mph - N/A   Unknown
9:00 PM 44.2 °F 37.6 °F 42.6 °F 94% 29.77 in - SW 13.8 mph - N/A   Unknown
10:00 PM 42 °F - 40 °F 88% 29.78 in - WNW 18.4 mph - -  
10:00 PM 41.9 °F 33.4 °F 39.7 °F 92% 29.78 in - WNW 18.4 mph - N/A   Unknown
11:00 PM 42.1 °F 34.9 °F 37.9 °F 85% 29.81 in - WNW 13.8 mph - N/A   Unknown